Regional Weather Roundup
Issued by NWS Northern Indiana

Home | Current Version | Previous Version | Text Only | Print | Product List | Glossary Off
Versions: 1 2 3 4 5 6 7 8 9 10 11 12 13 14 15 16 17 18 19 20 21 22 23 24 25 26 27 28 29 30 31 32 33 34 35 36 37 38 39 40 41 42 43 44 45 46 47 48 49 50

000
ASUS43 KIWX 042010
RWRIWX

KIWX WEATHER ROUNDUP
NATIONAL WEATHER SERVICE NORTHERN INDIANA
400 PM EDT TUE AUG 04 2015

NOTE: "FAIR" INDICATES FEW OR NO CLOUDS BELOW 12,000 FEET WITH NO
SIGNIFICANT WEATHER AND/OR OBSTRUCTIONS TO VISIBILITY.

* THESE STATIONS ARE NOT UNDER NWS QUALITY CONTROL. THEY ALSO MAY NOT
  REPORT WEATHER SUCH AS PRECIPITATION OR FOG.

INZ001>027-042100-
NORTHERN INDIANA

CITY           SKY/WX    TMP DP  RH WIND       PRES   REMARKS
GARY*          PTSUNNY   82  52  34 W8        29.98S
VALPARAISO     MOSUNNY   79  52  38 W10       29.98S
MICHIGAN CITY* PTSUNNY   79  48  34 N8        29.98S
LAPORTE*       MOSUNNY   81  54  39 NW3       29.99S
KNOX*          MOSUNNY   79  54  41 W13G20    29.97S
SOUTH BEND     PTSUNNY   79  51  37 NW10      29.99S
ELKHART*       SUNNY     79  50  36 W13       29.98S
GOSHEN         PTSUNNY   78  58  49 W9        29.97S
MONTICELLO*    PTSUNNY   79  58  48 W7        29.99S
LOGANSPORT*    MOSUNNY   79  50  36 W7        30.00R
ROCHESTER*     MOSUNNY   82  55  39 W12       29.98F
WARSAW*        PTSUNNY   81  55  41 W10G16    29.98S
ANGOLA*        MOSUNNY   79  57  47 NW9       29.97S
FORT WAYNE     PTSUNNY   80  57  45 W12       29.98S
HUNTINGTON*    PTSUNNY   78  57  47 W8        29.97F
PERU/GRISSOM   MOSUNNY   80  58  45 W14       29.98S
MARION*        MOSUNNY   77  58  51 W8        30.00R

$$
INZ028>050-042100-
CENTRAL INDIANA

CITY           SKY/WX    TMP DP  RH WIND       PRES   REMARKS
LAFAYETTE      PTSUNNY   78  57  48 NW10      29.99S
KOKOMO*        FAIR      81  59  47 NW16      29.99S
MUNCIE*        MOSUNNY   78  57  48 W8        29.99S
INDIANAPOLIS   PTSUNNY   82  56  40 W12       30.00R

$$
MIZ043>046-050>051-056>058-064>065-071>073-077>080-042100-
SOUTHWEST LOWER MICHIGAN

CITY           SKY/WX    TMP DP  RH WIND       PRES   REMARKS
BATTLE CREEK     N/A    N/A N/A N/A MISG      29.97R
BENTON HARBOR  MOSUNNY   77  58  51 W9        29.97F
COLDWATER*     MOSUNNY   78  52  40 W12G20    29.96S
HILLSDALE*     MOSUNNY   79  55  44 W9G16     29.97S
HOLLAND        SUNNY     76  60  57 W14G20    29.97S
GRAND RAPIDS   PTSUNNY   79  54  41 W18G28    29.95S
KALAMAZOO      MOSUNNY   80  52  37 W18       29.97R
STURGIS*       MOSUNNY   77  55  47 NW9       29.96F
THREE RIVERS*  FAIR      78  53  41 W10G18    29.97S

$$
OHZ001>008-015>018-024>025-042100-
NORTHWEST OHIO

CITY           SKY/WX    TMP DP  RH WIND       PRES   REMARKS
WAUSEON*       FAIR      81  57  44 W9G18     29.95S
DEFIANCE       MOSUNNY   83  57  41 NW13      29.96R
FINDLAY        PTSUNNY   80  57  45 W14       29.95S
TOLEDO EXPRESS MOSUNNY   80  55  42 W14       29.94S
TOLEDO METCALF MOSUNNY   81  55  40 W16       29.94F
LIMA           PTSUNNY   79  57  46 W12       29.98S

$$
AND FOR LAKE MICHIGAN COASTAL AND OPEN LAKE BUOY OBSERVATIONS

STATION/POSITION TEMP    WIND        PRES    VSBY  WAVE
                 AIR SEA DIR/SP/G                  HT/PER
                 (F)     (DEG/KT/KT) (MB)    (MI)  (FT/S)
CALUMET HARBOR    81     300/  6/ 11   N/A
MICHIGAN CITY     79     320/  3/  4   N/A
BURNS HARBOR      76      20/  3/  4 1015.2S
SAINT JOSEPH      78     210/  6/  8 1015.6F
4 MI NW BRIDGMAN  74 74  260/  6/  6   N/A           1/ 3
MICHIGAN CITY     77 75   CALM  /  2   N/A           1
MICHIGAN CITY CG  80 75  330/  3       N/A       6   1

$$
&&



USA.gov is the U.S. government's official web portal to all federal, state and local government web resources and services.